DW8209 Gubbio IT current weather conditions

sailwx.info

Wind from 245 at 3 knots gusting 12

Air temperature 13.9° C
Dewpoint 4.5° C

Last reported at 2017-Feb-27 13:41 UTC.
Time now 2017-Feb-27 14:19 UTC

Location: N 43°19' E 012°34'.
View on Google Maps.

See reports from other nearby stations

  
Tides and Currents Weather Stations Pressure Air Temp Water Temp Dewpoint Dewpoint Depression Visibility Wind Speed Wind Dir Waves Ship Positions
date/time (UTC)wind fromknots sea level pressurealtimeterstation pressurevisibilityair tempwater tempwave heightnotes
2017-Feb-27 13:41 245 3 gusting 12 13.9
2017-Feb-27 13:26 247 7 gusting 10 13.9
2017-Feb-27 13:11 273 5 gusting 9 13.9
2017-Feb-27 12:56 278 3 gusting 9 13.9
2017-Feb-27 12:41 248 4 gusting 8 13.3
2017-Feb-27 12:26 233 6 gusting 12 13.3
2017-Feb-27 12:11 229 5 gusting 13 13.3
2017-Feb-27 11:56 251 6 gusting 10 12.8
2017-Feb-27 11:41 236 4 gusting 6 12.8
2017-Feb-27 11:26 221 3 gusting 7 12.8
2017-Feb-27 11:11 214 3 gusting 7 12.2
2017-Feb-27 10:56 245 6 gusting 10 12.2
2017-Feb-27 10:41 234 5 gusting 10 12.8
2017-Feb-27 10:26 236 4 gusting 9 12.8
2017-Feb-27 10:11 213 4 gusting 9 12.2
2017-Feb-27 09:55 007 0 gusting 2 11.1
2017-Feb-27 09:41 048 11.1
2017-Feb-27 09:25 098 10.6
2017-Feb-27 09:10 062 8.9
2017-Feb-27 08:55 266 8.3
2017-Feb-27 08:40 285 7.2
2017-Feb-27 08:25 343 6.1
2017-Feb-27 08:10 060 5.0
2017-Feb-27 07:55 274 3.9
2017-Feb-27 07:40 276 2.8
2017-Feb-27 07:25 263 2.2
2017-Feb-27 07:10 263 0 gusting 1 1.7
2017-Feb-27 06:55 264 1.7
2017-Feb-27 06:40 263 1.7
2017-Feb-27 06:25 263 1.1
2017-Feb-27 06:10 263 1.1
2017-Feb-27 05:55 255 0.6
2017-Feb-27 05:40 254 0.6
2017-Feb-27 05:25 341 0 gusting 1 0.6
2017-Feb-27 05:10 337 0.6
2017-Feb-27 04:55 284 0.6
2017-Feb-27 04:40 285 0.6
2017-Feb-27 04:25 285 -0.0
2017-Feb-27 04:10 283 -0.0
2017-Feb-27 03:55 285 -0.0
2017-Feb-27 03:40 285 -0.0
2017-Feb-27 03:25 287 -0.6
2017-Feb-27 03:10 287 -0.0
2017-Feb-27 02:55 287 -0.0
2017-Feb-27 02:39 298 0 gusting 0 -0.0
2017-Feb-27 02:24 330 -0.0
2017-Feb-27 02:09 330 -0.0
2017-Feb-27 01:54 330 0.6
2017-Feb-27 01:39 330 0.6
2017-Feb-27 01:24 330 0.6
2017-Feb-27 01:09 013 0.6
2017-Feb-27 00:54 013 0.6
2017-Feb-27 00:39 015 1.1
2017-Feb-27 00:24 015 1.1
2017-Feb-27 00:09 014 1.1
2017-Feb-26 23:54 280 1.1
2017-Feb-26 23:39 280 1.7
2017-Feb-26 23:24 281 2.2
2017-Feb-26 23:09 280 1.7
2017-Feb-26 22:54 280 1.7
2017-Feb-26 22:39 280 2.2
2017-Feb-26 22:24 294 2.2
2017-Feb-26 22:09 294 2.2
2017-Feb-26 21:54 294 2.8
2017-Feb-26 21:39 293 3.3
2017-Feb-26 21:24 287 0 gusting 1 2.8
2017-Feb-26 21:09 285 3.3
2017-Feb-26 20:54 294 1 gusting 1 3.9
2017-Feb-26 20:39 312 4.4
2017-Feb-26 20:24 294 0 gusting 0 3.9
2017-Feb-26 20:09 285 4.4
2017-Feb-26 19:54 287 5.0
2017-Feb-26 19:39 287 0 gusting 0 5.0
2017-Feb-26 19:24 287 5.6
2017-Feb-26 19:09 287 0 gusting 0 6.1
2017-Feb-26 18:54 287 0 gusting 1 6.7
2017-Feb-26 18:39 281 7.8
2017-Feb-26 18:24 153 0 gusting 1 7.8
2017-Feb-26 18:09 063 8.9
2017-Feb-26 17:54 260 1 gusting 2 9.4
2017-Feb-26 17:39 284 2 gusting 4 10.0
2017-Feb-26 17:24 314 0 gusting 3 10.6
2017-Feb-26 17:09 215 11.1
2017-Feb-26 16:54 295 0 gusting 1 11.7
2017-Feb-26 16:39 283 1 gusting 3 12.8
2017-Feb-26 16:24 340 0 gusting 2 13.3
2017-Feb-26 16:09 277 0 gusting 1 14.4
2017-Feb-26 15:54 307 15.0
2017-Feb-26 15:39 242 15.0
2017-Feb-26 15:24 013 15.0
2017-Feb-26 15:09 011 15.0
2017-Feb-26 14:54 324 15.0
2017-Feb-26 14:39 025 15.0
2017-Feb-26 14:24 127 15.0
2017-Feb-26 14:09 142 15.0
2017-Feb-26 13:54 051 14.4
2017-Feb-26 13:38 356 14.4
2017-Feb-26 13:23 330 13.9
2017-Feb-26 13:08 090 13.9
2017-Feb-26 12:54 101 13.9
2017-Feb-26 12:38 125 13.3
2017-Feb-26 12:23 138 13.3
2017-Feb-26 12:08 195 0 gusting 5 13.3
2017-Feb-26 11:53 152 12.8
2017-Feb-26 11:38 094 0 gusting 5 12.2
2017-Feb-26 11:23 135 0 gusting 6 12.2
2017-Feb-26 11:08 229 12.2
2017-Feb-26 10:53 084 12.2
2017-Feb-26 10:38 212 11.1
2017-Feb-26 10:23 011 11.1
2017-Feb-26 10:08 267 11.1
2017-Feb-26 09:53 267 10.6
2017-Feb-26 09:38 301 10.6
2017-Feb-26 09:23 286 0 gusting 1 10.0
2017-Feb-26 09:08 211 10.0
2017-Feb-26 08:53 233 9.4
2017-Feb-26 08:38 259 8.3
2017-Feb-26 08:23 250 7.8
2017-Feb-26 08:07 277 6.7
2017-Feb-26 07:53 222 5.6
2017-Feb-26 07:37 297 0 gusting 1 3.9
2017-Feb-26 07:22 089 3.3
2017-Feb-26 07:07 079 0 gusting 1 2.2
2017-Feb-26 06:52 162 1.7
2017-Feb-26 06:37 316 0.6
2017-Feb-26 06:22 335 -0.6
2017-Feb-26 06:07 335 -0.6
2017-Feb-26 05:52 335 -0.6
2017-Feb-26 05:37 280 -0.0
2017-Feb-26 05:22 047 -0.0
2017-Feb-26 05:07 079 -0.0
2017-Feb-26 04:52 079 -0.0
2017-Feb-26 04:37 283 0.6
2017-Feb-26 04:22 283 0 gusting 2 1.1
2017-Feb-26 04:07 001 1.1
2017-Feb-26 03:52 240 1.1
2017-Feb-26 03:37 240 1 gusting 2 2.2
2017-Feb-26 03:22 143 0 gusting 4 1.7
2017-Feb-26 03:07 222 2 gusting 4 2.2
2017-Feb-26 02:52 257 0 gusting 2 1.1
2017-Feb-26 02:37 144 0 gusting 1 1.1
2017-Feb-26 02:22 195 0 gusting 2 1.1
2017-Feb-26 02:07 134 0 gusting 1 1.7
2017-Feb-26 01:52 273 2.2
2017-Feb-26 01:37 158 0 gusting 3 2.2
2017-Feb-26 01:22 271 0 gusting 1 2.2
2017-Feb-26 01:07 257 1.7
2017-Feb-26 00:52 233 1 gusting 2 1.1
2017-Feb-26 00:36 263 0 gusting 3 1.7
2017-Feb-26 00:21 293 2 gusting 3 1.1
2017-Feb-26 00:06 285 1 gusting 1 1.1
2017-Feb-25 23:51 271 1.1
2017-Feb-25 23:36 271 1.7
2017-Feb-25 23:21 233 0 gusting 1 2.8
2017-Feb-25 23:06 274 2 gusting 3 3.3
2017-Feb-25 22:51 159 4.4
2017-Feb-25 22:36 099 0 gusting 1 5.0
2017-Feb-25 22:21 129 0 gusting 5 5.6
2017-Feb-25 22:06 032 3 gusting 10 6.1
2017-Feb-25 21:51 023 1 gusting 5 6.1
2017-Feb-25 21:36 323 0 gusting 3 5.6
2017-Feb-25 21:21 050 1 gusting 3 5.6
2017-Feb-25 21:06 080 1 gusting 6 5.6
2017-Feb-25 20:51 349 2 gusting 4 5.6
2017-Feb-25 20:36 061 3 gusting 6 5.6
2017-Feb-25 20:21 053 4 gusting 12 6.1
2017-Feb-25 20:06 013 5 gusting 11 5.6
2017-Feb-25 19:51 035 6 gusting 8 5.6
2017-Feb-25 19:36 023 2 gusting 6 5.6
2017-Feb-25 19:21 015 1 gusting 6 5.6
2017-Feb-25 19:06 036 0 gusting 6 5.6
2017-Feb-25 18:52 322 1 gusting 7 5.6
2017-Feb-25 18:36 318 3 gusting 7 5.6
2017-Feb-25 18:21 302 0 gusting 8 5.6
2017-Feb-25 18:06 359 0 gusting 3 5.6
2017-Feb-25 17:51 034 0 gusting 3 5.6
2017-Feb-25 17:35 328 1 gusting 11 6.1
2017-Feb-25 17:20 102 1 gusting 5 6.1
2017-Feb-25 17:05 036 1 gusting 13 6.1
2017-Feb-25 16:50 334 1 gusting 9 6.7
2017-Feb-25 16:35 318 0 gusting 6 6.7
2017-Feb-25 16:20 032 0 gusting 12 7.2
2017-Feb-25 16:05 027 1 gusting 10 7.2
2017-Feb-25 15:50 027 0 gusting 9 7.8
2017-Feb-25 15:35 023 0 gusting 13 7.8
2017-Feb-25 15:20 040 1 gusting 12 7.8
2017-Feb-25 15:05 044 1 gusting 13 7.8
2017-Feb-25 14:50 038 1 gusting 12 7.8
2017-Feb-25 14:35 047 1 gusting 13 8.3
2017-Feb-25 14:20 051 1 gusting 15 8.3
2017-Feb-25 14:06 036 0 gusting 11 8.3